Theta_e
313 313 314 321 321 317 317 316 312 315 315 316 315 315 317 318 318 320 325 334 334 334 335 334 334 334 333 329 329 334 334 332 330 326 321 316 313 313 312 310 309 308 309 313 309 321 318 314 315
313 314 318 321 319 318 317 312 315 314 319 319 319 320 320 322 326 327 333 332 335 333 334 335 334 334 332 328 330 335 334 333 331 327 322 317 313 311 310 309 308 308 310 315 312 317 318 315 315
315 318 321 314 312 318 316 312 314 314 318 315 319 319 321 323 325 328 327 328 334 333 334 334 334 333 331 328 330 334 334 334 331 328 323 319 315 313 310 309 308 307 307 308 310 314 316 316 314
320 320 315 316 316 313 313 313 313 316 316 315 319 321 321 324 324 324 324 327 331 334 334 334 335 333 330 329 330 332 333 334 332 330 325 322 319 316 313 310 308 306 306 308 310 314 313 312 311
320 318 314 313 313 311 309 312 314 314 314 317 318 318 321 321 322 323 321 326 331 334 333 333 334 333 331 330 330 332 333 334 333 331 327 325 323 321 318 315 311 309 306 305 307 308 308 308 308
316 314 315 315 312 312 311 314 314 313 313 316 317 319 320 320 319 321 325 328 333 333 333 333 333 333 332 331 330 331 332 333 333 332 329 326 324 323 321 319 316 314 311 308 306 304 304 304 304
314 310 313 312 312 313 313 314 313 313 313 316 318 318 319 321 320 322 327 331 334 333 334 335 335 334 333 331 331 331 332 333 333 332 330 327 325 325 324 322 319 317 316 315 316 315 314 309 305
314 308 310 309 312 314 312 314 314 313 313 315 318 317 318 318 319 325 329 331 335 334 333 333 334 334 333 332 332 331 331 332 333 332 330 328 326 324 324 322 320 319 317 317 317 317 317 317 316
313 308 309 311 310 312 312 312 312 313 314 316 317 317 317 318 319 324 329 330 332 333 334 333 333 333 333 331 332 332 331 332 332 331 329 327 325 324 324 323 323 322 320 319 318 318 318 317 316
308 306 307 308 308 311 312 312 313 313 313 314 316 317 316 318 319 321 325 327 331 332 333 333 331 333 332 331 330 331 331 330 330 331 330 327 326 325 324 323 323 322 320 320 319 319 318 317 317
309 308 307 310 312 312 313 312 313 312 311 314 315 316 316 317 319 320 322 324 325 330 331 331 331 332 332 331 330 330 331 330 329 329 329 328 327 326 325 323 323 322 321 320 319 319 318 317 316
312 311 310 312 312 312 312 313 311 312 315 315 315 315 315 316 318 318 319 322 328 331 331 331 331 333 332 330 330 330 330 331 330 330 329 329 329 327 326 325 323 323 321 320 319 318 317 315 310
311 311 312 312 313 312 312 312 312 313 315 315 315 315 315 315 318 319 322 324 326 331 333 332 332 330 330 330 328 330 331 331 330 330 328 330 330 329 327 327 324 323 321 320 319 317 315 310 308
311 312 312 313 313 313 312 312 312 314 314 314 315 315 315 315 316 319 322 324 324 327 331 332 333 333 332 327 327 329 330 332 331 330 328 330 329 328 327 327 326 323 322 321 319 316 311 306 308
312 312 311 312 311 311 312 311 310 314 314 314 314 314 314 315 316 318 318 320 322 326 329 330 331 330 332 329 327 326 327 326 330 330 328 329 329 327 327 326 326 324 323 320 318 312 307 306 307
311 309 312 310 310 311 312 312 311 313 312 314 314 314 314 314 314 316 318 320 322 325 325 325 325 326 327 327 325 328 327 330 328 327 325 327 327 327 326 324 325 324 322 320 317 308 309 306 305
308 310 310 310 310 310 310 312 312 313 313 313 314 314 314 314 314 314 315 317 319 321 323 324 324 324 327 325 323 327 326 325 329 328 328 327 325 327 327 324 324 325 320 317 311 310 306 304 304
310 311 309 310 311 309 310 310 309 312 312 313 315 315 315 315 316 315 313 314 316 318 319 319 319 318 318 324 326 325 325 325 322 328 328 327 325 324 325 323 324 321 321 315 312 310 305 304 304
307 309 310 309 310 311 310 309 311 311 310 312 314 315 317 317 317 316 314 313 313 314 315 314 314 312 312 312 314 323 322 324 324 323 329 327 325 325 323 322 324 322 320 315 307 309 304 303 302
310 311 311 310 309 310 310 310 309 310 310 313 314 315 316 314 315 315 314 313 313 312 312 312 311 311 311 311 312 316 318 323 324 325 321 324 322 323 323 322 322 320 317 311 304 307 307 302 301
309 311 310 312 310 308 308 310 309 309 310 311 313 315 313 312 313 314 314 314 313 312 312 311 311 310 311 312 313 315 319 323 320 320 322 323 322 321 322 320 319 316 308 305 303 303 301 301 300
311 308 310 311 313 313 309 315 312 311 311 309 315 312 314 314 314 313 313 313 313 312 311 310 310 310 311 312 314 315 316 318 319 321 321 322 321 321 320 318 316 309 300 302 301 299 299 299 299
311 308 309 310 310 311 311 313 315 311 313 312 312 314 314 314 314 313 312 311 311 311 310 310 310 309 310 311 312 313 315 319 320 321 319 318 319 319 318 317 310 308 299 298 297 296 296 296 296
307 309 308 307 308 314 311 314 316 313 313 311 312 312 313 313 314 314 313 311 310 309 308 309 309 309 310 311 313 315 316 316 317 317 318 317 317 316 314 309 301 297 297 295 295 295 294 293 294
310 312 315 315 313 317 309 311 316 313 310 309 312 312 312 313 313 313 313 311 310 309 308 308 308 309 309 310 313 315 313 313 315 315 316 316 315 311 307 302 297 295 295 294 294 294 293 293 293
309 312 315 316 315 316 309 313 314 308 310 310 310 311 313 312 311 311 311 309 309 308 307 307 308 308 308 308 309 312 311 312 313 313 314 314 312 310 302 297 297 295 293 293 293 293 292 292 292
310 312 311 312 296 310 313 311 310 309 309 309 310 311 311 310 310 310 309 309 308 308 307 307 307 307 307 307 309 310 310 311 312 313 312 310 307 307 294 296 292 293 293 292 292 292 291 290 290
310 309 314 313 317 318 314 312 316 313 312 309 309 308 309 310 310 310 309 309 308 307 307 306 307 307 307 307 308 308 309 310 312 311 310 309 305 296 299 291 291 291 291 291 290 290 290 289 289
310 311 312 313 312 314 312 316 307 311 310 309 308 310 310 310 310 310 310 310 309 307 307 306 306 306 306 306 307 307 308 308 308 308 308 306 298 296 291 292 289 290 290 290 289 289 289 288 288
309 312 313 317 313 310 311 317 309 308 306 308 308 307 310 311 312 312 312 311 310 309 308 307 306 306 306 306 306 308 309 309 308 307 304 303 296 297 293 290 289 289 288 288 288 288 288 287 287
Wind_Speed
3 2 2 1 4 4 1 3 1 2 1 2 6 5 5 3 3 2 13 18 17 17 16 15 14 12 11 10 9 8 7 8 9 10 12 13 13 13 12 12 12 12 13 12 15 14 14 16 18
3 4 3 3 4 2 3 2 4 4 6 13 9 6 2 2 5 9 18 15 18 17 16 15 14 13 10 10 9 8 6 7 8 10 11 13 13 13 12 12 12 13 14 12 17 15 14 15 16
6 6 3 4 3 3 3 4 4 4 13 2 3 2 3 4 8 18 13 15 18 19 17 15 14 12 10 10 9 8 5 6 7 9 11 12 12 12 13 13 13 13 13 13 15 14 12 13 14
5 4 6 4 2 4 4 3 5 10 5 3 4 3 3 7 13 12 13 15 18 19 17 15 13 12 10 10 9 8 7 5 5 7 9 10 11 12 12 12 13 13 13 13 13 12 11 12 13
5 4 4 3 2 3 3 3 11 6 2 4 6 4 3 9 9 10 12 17 19 20 17 15 13 12 10 8 8 7 7 6 5 5 7 8 9 10 11 11 11 11 11 11 11 11 10 10 11
3 3 4 2 3 3 3 7 8 6 3 5 4 6 5 9 10 12 14 16 18 18 16 15 14 12 11 10 9 8 8 5 5 5 5 6 8 9 10 11 12 12 12 11 11 10 10 10 10
5 4 4 4 2 3 4 10 7 9 6 6 4 6 3 12 13 14 16 18 18 14 13 13 14 12 10 10 9 9 8 6 5 4 5 6 7 9 10 10 11 12 12 13 12 12 11 10 9
4 6 4 3 4 5 5 12 5 11 7 5 9 4 3 15 16 18 17 20 21 19 17 15 13 12 10 7 8 9 9 8 7 6 6 5 6 7 9 12 15 15 14 12 12 12 12 12 10
5 4 2 5 6 4 6 5 5 6 5 10 12 7 5 15 18 20 21 22 21 22 21 18 16 12 12 12 11 8 8 8 10 10 7 3 4 6 7 8 10 10 13 13 11 12 13 11 10
4 4 8 4 5 3 5 6 9 6 8 9 12 15 10 14 21 23 24 24 25 24 24 22 17 16 13 13 12 10 11 11 10 11 9 6 3 2 2 3 2 6 9 10 9 9 10 8 8
3 5 5 4 5 4 4 5 7 8 5 14 17 19 17 17 23 24 24 24 23 24 25 24 20 19 17 15 15 14 16 15 12 12 11 10 8 6 4 2 2 1 3 4 6 6 7 7 6
2 2 4 2 4 2 3 3 5 15 15 8 10 14 17 21 25 27 27 26 27 27 25 26 22 22 22 19 18 19 18 19 16 14 13 12 11 10 8 6 5 5 4 2 3 4 6 6 5
3 1 3 4 5 6 5 9 7 15 18 18 16 14 17 21 25 27 26 25 26 28 28 26 26 23 25 24 22 21 19 22 19 16 16 15 13 12 12 10 10 8 6 3 2 2 4 4 6
1 0 4 4 6 6 4 4 3 7 15 21 19 19 18 22 25 28 29 29 29 29 29 29 28 26 26 24 23 23 22 23 22 20 17 16 13 15 16 13 12 13 10 6 2 3 4 6 9
2 3 5 6 2 4 3 7 9 23 21 17 19 22 21 24 27 30 29 30 30 30 29 29 28 27 27 27 24 22 22 20 21 22 20 18 17 17 14 16 13 16 12 8 4 7 7 9 13
4 4 2 2 4 2 6 9 6 5 11 21 22 22 24 26 29 30 31 31 30 31 30 29 28 27 28 27 25 26 22 23 25 24 23 22 18 24 18 19 16 19 12 10 7 10 7 12 15
6 3 4 8 9 3 4 7 5 3 7 14 16 19 23 26 30 32 33 32 33 32 31 31 30 29 30 29 26 27 28 28 31 27 26 23 22 24 29 20 18 18 17 12 9 9 8 15 19
6 4 4 5 2 2 3 13 12 15 11 19 21 21 25 29 32 30 32 33 35 35 34 33 31 31 30 31 30 28 29 29 28 27 29 26 25 27 29 21 22 15 11 16 15 11 15 16 20
6 4 5 4 4 4 8 10 16 16 17 28 35 36 40 43 37 32 32 34 36 36 36 35 33 32 31 33 34 35 31 32 30 29 32 25 27 28 26 17 23 20 19 16 19 17 17 22 21
3 4 5 6 3 6 8 11 13 20 17 32 38 40 46 38 38 34 32 36 39 38 36 35 33 31 29 30 30 33 32 32 31 29 31 29 28 27 29 30 28 20 21 21 25 17 19 24 24
4 6 5 7 4 3 6 7 7 9 21 30 39 44 36 30 32 30 30 35 39 41 39 36 32 29 28 28 28 31 33 33 32 34 27 24 24 23 23 26 19 19 21 23 24 19 19 24 25
5 8 5 3 2 5 3 7 4 7 8 5 32 23 24 23 23 23 23 29 36 40 38 35 32 29 29 28 29 30 32 33 32 31 32 25 21 27 29 23 19 21 22 23 22 22 20 20 20
6 5 6 3 3 3 3 4 3 2 5 13 12 15 11 9 11 13 14 18 27 34 36 35 33 31 30 29 29 29 28 29 28 28 28 29 29 29 27 24 24 22 23 23 24 23 22 20 19
9 6 5 4 2 4 9 7 5 6 6 6 3 2 2 11 11 9 10 14 20 28 34 35 34 32 29 27 27 30 30 30 30 31 31 27 33 27 27 26 26 27 26 27 26 23 22 20 18
1 6 1 3 0 8 1 3 10 8 7 6 3 10 11 6 7 9 11 13 18 23 30 34 34 32 29 28 29 31 28 29 28 30 33 35 32 32 32 29 28 27 26 26 26 25 23 21 18
9 7 6 7 4 4 2 8 6 8 13 12 12 11 14 17 16 12 10 10 13 18 26 31 33 30 28 28 28 29 27 29 31 33 36 38 35 37 34 33 30 29 29 28 26 24 22 19 15
7 7 5 6 2 2 5 7 8 11 11 10 9 9 8 5 4 4 6 7 10 14 21 27 29 28 27 27 26 28 29 30 31 35 38 40 39 36 34 32 32 32 30 27 25 22 20 17 14
5 7 3 1 4 6 5 6 7 6 6 5 3 2 1 1 1 1 2 5 8 12 16 22 25 26 26 25 25 26 28 30 32 32 37 40 37 37 35 36 34 32 31 28 24 21 18 15 13
3 4 2 5 4 5 2 6 7 10 7 7 3 2 0 2 3 2 1 2 6 9 14 18 24 26 26 25 25 26 28 30 32 33 36 38 38 39 37 34 34 33 31 27 24 20 17 15 13
1 7 6 5 5 4 2 10 2 5 7 7 6 6 8 8 7 5 3 3 7 11 15 18 22 25 25 24 24 26 29 29 30 31 33 37 40 38 34 36 34 32 29 26 22 20 17 14 12
Wind_Direction
228 200 149 142 56 62 317 263 329 176 247 179 138 164 183 119 163 187 152 157 166 171 165 160 160 161 155 144 137 127 122 111 92 72 65 67 67 68 66 68 70 72 75 78 72 87 76 70 68
181 162 131 87 84 58 275 254 218 196 138 120 117 120 126 144 135 146 150 164 170 175 171 163 163 164 161 153 145 136 131 109 94 84 77 75 73 73 73 72 71 71 78 83 84 82 77 74 70
158 156 108 88 102 173 214 220 199 153 152 148 128 116 141 149 147 150 160 165 171 174 174 170 168 169 168 161 155 151 136 103 95 83 77 74 74 75 77 76 74 73 78 75 87 90 86 77 73
156 123 65 84 195 231 199 205 178 142 206 191 164 108 148 145 148 167 173 172 174 173 176 174 175 176 175 170 164 162 156 120 109 86 78 74 74 75 73 71 73 78 79 81 82 85 79 72 69
152 103 67 82 252 264 242 213 167 161 197 177 168 190 179 172 171 171 172 175 176 172 176 178 181 182 182 180 172 171 171 153 143 107 89 83 79 73 73 78 80 77 75 77 84 82 79 75 73
108 92 73 205 244 250 242 180 164 183 194 178 188 161 181 184 178 171 164 169 171 173 175 181 185 187 189 190 189 185 189 180 157 133 111 91 74 66 65 68 74 78 78 76 75 72 71 72 71
126 87 180 172 234 293 207 169 180 185 195 219 194 151 212 185 173 171 166 167 162 172 187 188 187 185 184 197 195 191 197 194 181 160 130 109 89 74 64 61 62 66 68 66 65 63 60 60 60
127 92 120 218 198 247 192 170 196 181 205 202 187 205 218 189 177 174 173 170 172 175 189 194 207 202 195 207 215 204 202 199 192 174 159 134 94 70 71 78 78 76 68 59 51 53 53 52 53
122 69 178 219 159 234 172 178 172 187 182 191 200 210 203 187 187 183 181 178 180 182 188 195 206 201 202 215 223 232 218 208 205 200 204 178 91 75 72 75 59 69 71 67 55 43 35 40 43
98 116 213 203 197 209 196 191 177 168 200 215 222 224 217 199 197 197 195 190 187 187 188 195 200 202 205 219 229 232 226 227 222 217 208 231 190 159 82 42 60 84 79 66 61 39 28 37 36
140 176 190 214 227 215 188 204 189 174 229 220 226 234 223 212 205 206 207 206 201 192 193 193 197 202 208 221 224 231 228 225 225 227 221 215 214 210 208 244 266 145 98 89 66 45 25 21 21
132 192 171 208 213 197 196 184 201 208 232 238 244 244 234 222 213 212 211 209 206 203 204 202 201 205 206 217 225 232 227 224 221 223 224 227 224 223 226 234 250 218 196 137 75 50 27 20 38
142 197 215 250 245 245 249 247 235 246 246 250 250 243 235 230 221 218 216 214 212 211 211 214 216 215 212 213 224 233 231 227 225 230 226 223 226 229 229 228 246 224 215 184 145 65 45 50 88
116 267 289 276 250 244 220 254 219 258 248 246 247 249 240 233 228 221 216 215 216 215 216 218 221 224 221 220 226 227 233 230 224 230 233 238 231 239 232 237 238 227 216 207 199 114 94 108 113
90 348 330 247 286 239 217 285 234 255 254 253 249 247 242 236 227 228 229 225 222 220 221 223 226 228 228 224 220 225 228 233 233 229 230 246 232 241 241 251 238 234 220 200 178 140 125 131 127
56 43 12 271 170 246 160 271 266 289 251 252 250 249 246 239 236 234 230 228 228 226 228 229 231 230 229 221 222 225 229 234 232 232 239 241 241 245 242 245 246 233 195 193 183 151 149 143 137
7 223 211 313 206 127 170 265 251 279 250 260 257 253 250 248 241 235 232 230 229 230 231 232 233 234 233 234 221 225 228 227 237 233 233 236 250 242 256 266 242 221 193 187 179 160 181 159 148
197 210 235 237 215 168 206 262 274 259 267 269 273 266 261 254 248 244 236 232 230 231 232 234 235 235 234 231 225 226 226 229 227 225 243 238 241 240 231 246 252 204 207 191 180 195 176 168 160
138 179 210 239 238 186 229 240 260 263 254 262 263 262 262 260 259 246 238 235 232 231 231 233 236 239 237 235 229 223 224 225 225 239 221 234 231 249 256 242 245 204 205 196 185 182 185 168 168
159 193 246 282 247 191 271 250 250 258 244 246 254 260 262 261 262 255 243 236 235 235 235 235 237 238 237 231 227 221 219 222 221 227 241 232 246 238 234 252 209 208 196 190 189 199 197 181 175
202 196 202 230 322 238 313 271 235 268 246 251 255 258 263 267 273 267 251 240 236 234 234 234 236 235 231 226 221 220 218 222 226 226 233 233 225 235 228 206 198 200 192 189 190 200 206 190 183
231 202 177 195 61 256 10 289 256 240 250 254 256 262 274 282 281 275 260 243 238 235 231 232 234 232 228 224 222 223 226 223 222 231 230 226 232 210 206 199 204 195 192 189 190 196 198 199 200
222 130 163 132 180 354 316 274 237 145 266 255 273 283 295 300 288 277 267 253 244 238 231 230 230 228 225 223 220 224 222 222 221 221 235 231 214 216 211 208 198 194 193 185 194 193 193 198 203
150 85 63 63 97 268 197 196 154 188 211 253 215 175 205 316 301 275 248 236 235 233 228 227 227 228 224 219 214 219 222 226 229 229 218 230 208 206 205 198 194 192 193 192 191 188 184 184 187
157 116 286 322 1 241 20 250 254 280 229 234 256 279 292 320 306 286 264 250 238 229 226 223 225 225 220 219 216 216 222 229 231 232 234 226 208 198 196 191 194 191 194 192 192 189 185 181 179
199 173 168 211 205 267 147 238 249 235 269 274 282 291 294 291 285 276 257 242 236 227 225 222 223 222 221 221 219 218 221 224 230 231 231 213 208 204 191 191 195 195 191 190 186 183 180 176 172
195 208 165 104 48 20 224 283 278 258 276 276 270 276 278 275 252 241 243 236 235 230 227 223 222 223 224 226 222 221 225 227 228 228 222 216 204 204 189 196 191 191 192 191 188 185 180 170 161
170 163 100 319 171 239 262 272 227 252 193 220 132 346 8 199 148 166 203 224 229 228 226 222 222 228 227 225 226 230 229 229 230 230 220 212 207 196 197 192 194 191 190 189 185 180 172 164 154
148 206 131 128 159 183 285 261 219 222 177 170 175 18 169 154 96 76 142 233 235 229 225 221 220 224 224 222 223 230 233 237 234 227 220 218 202 199 194 199 195 193 190 186 183 179 173 162 155
67 197 155 185 210 234 155 259 194 203 160 168 202 199 129 127 117 112 109 234 245 237 226 224 224 228 231 230 229 226 227 232 233 230 225 213 207 203 199 199 197 195 191 185 183 179 169 158 150